User: anonymous
Location: Muenchen
(48.1800°N, 11.5800°E)
Time: 07:31:09
(UTC+02:00)
Language:

Cosmos 2233 Rocket - Orbit

View from above orbital plane
View from above orbital plane
View from above satellite
View from above satellite

Ground track
Ground track

The orbit data is extracted from the following two-line orbital elements,

1 22488U 93008B   14234.29700916  .00000057  00000-0  41484-4 0  9247
2 22488 082.9433 124.8168 0024434 228.9837 270.6823 13.77636829 82450
Epoch (UTC): 22 August 2014 07:07:41
Eccentricity: 0.0024434
inclination: 82.9433°
perigee height: 954 km
apogee height: 990 km
right ascension of ascending node: 124.8168°
argument of perigee: 228.9837°
revolutions per day: 13.77636829
mean anomaly at epoch: 270.6823°
orbit number at epoch: 8245

The dashed part of the orbit path shows where the satellite is in the earth's shadow,  

DLR